This demonstration page uses our WeatherBlox Daily Observations layout. Learn more.

Left ArrowRight Arrow

38.80484, -77.04692

Hourly Observations for July 18, 2018

Temp ( °F °C ) Dew Point ( °F °C ) Humidity (%) Winds ( mph kmh ) Pressure ( in mb ) Visibility ( mi km ) Precip ( " mm )
12:52 am 00:52 Partly Cloudy 74 23.3 67 19.4 79 79 NNW 7 11 29.87 1012 10 16 0.00 0.00
1:52 am 01:52 Partly Cloudy 75 23.9 65 18.3 71 71 NW 13 20 29.88 1012 10 16 0.00 0.00
2:52 am 02:52 Mostly Cloudy 74 23.3 64 17.8 71 71 NW 13 20 29.88 1012 10 16 0.00 0.00
3:52 am 03:52 Partly Cloudy 73 22.8 62 16.7 69 69 NNW 12 19 29.90 1012 10 16 0.00 0.00
4:52 am 04:52 Partly Cloudy 72 22.2 61 16.1 68 68 NNW 12 19 29.90 1013 10 16 0.00 0.00
5:52 am 05:52 Mostly Cloudy 70 21.1 61 16.1 73 73 NNW 10 17 29.92 1013 10 16 0.00 0.00
6:52 am 06:52 Mostly Cloudy 71 21.7 60 15.6 68 68 NNW 8 13 29.93 1014 10 16 0.00 0.00
7:52 am 07:52 Mostly Cloudy 73 22.8 60 15.6 64 64 NNW 10 17 29.95 1014 10 16 0.00 0.00
8:52 am 08:52 Mostly Cloudy 76 24.4 60 15.6 58 58 N 15 24 29.97 1015 10 16 0.00 0.00
9:52 am 09:52 Mostly Cloudy 80 26.7 60 15.6 51 51 N 12 19 29.98 1015 10 16 0.00 0.00
10:52 am 10:52 Partly Cloudy 82 27.8 57 13.9 42 42 N 12 19 29.98 1015 10 16 0.00 0.00
11:52 am 11:52 Mostly Sunny 85 29.4 54 12.2 35 35 N 15 24 29.96 1015 10 16 0.00 0.00
12:52 pm 12:52 Mostly Sunny 86 30 52 11.1 31 31 NNW 13 20 29.96 1015 10 16 0.00 0.00
1:52 pm 13:52 Mostly Sunny 88 31.1 52 11.1 29 29 N 12 19 29.95 1014 10 16 0.00 0.00
2:52 pm 14:52 Mostly Sunny 87 30.6 53 11.7 31 31 N 14 22 29.95 1014 10 16 0.00 0.00
3:52 pm 15:52 Partly Cloudy 88 31.1 55 12.8 33 33 N 14 22 29.95 1014 10 16 0.00 0.00
4:52 pm 16:52 Partly Cloudy 87 30.6 53 11.7 31 31 N 7 11 29.93 1014 10 16 0.00 0.00
5:52 pm 17:52 Partly Cloudy 88 31.1 55 12.8 33 33 NNW 13 20 29.93 1014 10 16 0.00 0.00
6:52 pm 18:52 Mostly Sunny 86 30 55 12.8 35 35 NW 13 20 29.94 1014 10 16 0.00 0.00
7:52 pm 19:52 Mostly Sunny 84 28.9 56 13.3 38 38 NNW 10 17 29.95 1014 10 16 0.00 0.00
8:52 pm 20:52 Mostly Clear 81 27.2 57 13.9 44 44 NW 9 15 29.96 1015 10 16 0.00 0.00
9:52 pm 21:52 Mostly Clear 80 26.7 57 13.9 45 45 NNW 8 13 29.98 1015 10 16 0.00 0.00
10:52 pm 22:52 Mostly Clear 77 25 59 15 54 54 NNW 6 9 29.98 1015 10 16 0.00 0.00
11:52 pm 23:52 Clear 76 24.4 59 15 56 56 NNW 7 11 30.00 1016 10 16 0.00 0.00

Powered by AerisWeather